Home > Weather > Appleton > Past weeks

Flag for USA Weather for the Past 2 Weeks in Appleton, Wisconsin, USA

Now
66 °F

Partly sunny.


Feels Like: 66 °F
Forecast: 45 / 68 °F
Wind: 17 mph from West

Location: Appleton / Outagamie

Current Time: May 3, 2016 at 12:22:27 PM

Latest Report: May 3, 2016 at 11:45 AM


Visibility: 10 mi

Pressure: 29.81 "Hg

Humidity: 26%

Dew Point: 30 °F

Location of AppletonLocation

Historic Weather in Appleton — Graph

°F

Appleton Temperature Yesterday

Maximum temperature yesterday: 63 °F (at 3:45 PM)
Minimum temperature yesterday: 36 °F (at 5:15 AM)
Average temperature yesterday: 47 °F

High & Low Weather Summary for the Past Weeks

 TemperatureHumidityPressure
High81 °F (Apr 18, 3:45 PM)100% (Apr 21, 4:55 AM)30.36 "Hg (Apr 21, 4:55 AM)
Low32 °F (Apr 27, 4:35 AM)14% (Apr 27, 5:45 PM)29.61 "Hg (Apr 25, 4:45 PM)
Average46 °F66%30.02 "Hg
* Reported Apr 18 10:45 AM — May 3 10:45 AM, Appleton, Weather by CustomWeather, © 2016

Note: Actual official high and low records may vary slightly from our data, if they occured in-between our weather recording intervals... More about our weather records

Advertising

Appleton Weather History for the Previous 24 Hours

Scroll right to see more
 ConditionsComfort  
Time TempWeatherWind HumidityBarometerVisibility
10:45 AM
Tue, May 3
64 °FScattered clouds.14 mph32%29.84 "Hg10 mi
9:45 AM61 °FPassing clouds.15 mph36%29.86 "Hg10 mi
8:45 AM55 °FPassing clouds.12 mph51%29.87 "Hg10 mi
7:45 AM50 °FScattered clouds.12 mph58%29.89 "Hg10 mi
6:45 AM46 °FScattered clouds.9 mph66%29.89 "Hg10 mi
5:45 AM43 °FPassing clouds.8 mph71%29.89 "Hg10 mi
5:15 AM43 °FClear.8 mph71%29.90 "Hg10 mi
4:55 AM45 °FClear.8 mph66%29.90 "Hg10 mi
4:15 AM39 °FClear.5 mph75%29.92 "Hg10 mi
3:55 AM39 °FClear.5 mph75%29.92 "Hg10 mi
3:15 AM43 °FClear.8 mph71%29.92 "Hg10 mi
2:55 AM43 °FClear.6 mph66%29.93 "Hg10 mi
2:15 AM45 °FClear.7 mph66%29.93 "Hg10 mi
1:55 AM45 °FClear.7 mph66%29.94 "Hg10 mi
1:15 AM45 °FClear.8 mph66%29.95 "Hg10 mi
12:35 AM46 °FClear.8 mph62%29.96 "Hg10 mi
11:55 PM
Mon, May 2
46 °FClear.7 mph57%29.97 "Hg10 mi
11:15 PM46 °FClear.7 mph57%29.97 "Hg10 mi
10:45 PM48 °FPassing clouds.6 mph58%29.99 "Hg10 mi
9:45 PM52 °FPassing clouds.7 mph47%29.99 "Hg10 mi
7:45 PM55 °FScattered clouds.9 mph41%29.99 "Hg10 mi
5:45 PM63 °FPartly sunny.7 mph27%29.99 "Hg10 mi
4:45 PM63 °FScattered clouds.No wind25%30.00 "Hg10 mi
3:45 PM63 °FScattered clouds.8 mph25%30.02 "Hg10 mi
2:45 PM61 °FScattered clouds.5 mph27%30.04 "Hg10 mi
1:45 PM61 °FPartly sunny.6 mph29%30.04 "Hg10 mi
12:45 PM61 °FScattered clouds.8 mph29%30.06 "Hg10 mi
Weather by CustomWeather, © 2016

See weather overviewHow to use our weather pages